Temperature
16 16 17 17 17 17 17 17 17 18 18 18 18 18 18 18 18 18 18 18 18 18 18 18 18 18 18 18 18 18 18 18 18 18 18 18 18 18 18 18 18 18 17
16 16 16 16 17 17 17 17 17 17 18 18 18 18 18 18 18 18 18 18 18 18 18 18 18 18 18 18 18 18 18 18 18 18 18 18 18 18 18 18 18 17 17
16 16 16 16 16 16 17 17 17 17 17 17 18 18 18 19 19 18 18 18 18 18 18 18 18 18 18 18 18 18 18 18 18 18 18 18 18 18 18 18 18 17 17
15 15 15 16 16 16 16 16 17 17 17 17 17 18 18 18 18 18 18 18 18 18 18 18 18 18 18 18 18 18 18 18 18 18 18 18 18 18 18 18 17 17 17
15 15 15 15 15 16 16 16 16 16 17 17 17 17 18 18 18 18 18 18 18 18 18 18 18 18 18 18 18 18 18 18 18 18 17 17 17 17 17 17 17 17 17
14 14 14 15 15 15 15 16 16 16 16 16 16 17 17 18 18 18 18 18 18 18 18 18 18 18 18 18 18 18 18 18 18 17 17 17 17 17 17 17 17 17 17
14 14 14 14 14 15 15 15 15 16 16 16 16 16 17 17 17 18 18 18 18 18 18 18 18 18 18 18 18 18 18 18 18 17 17 17 17 17 17 17 17 17 17
13 14 14 14 14 14 14 15 15 15 15 16 16 16 16 17 17 17 18 18 18 18 18 18 18 18 18 18 18 18 18 18 18 17 17 17 17 17 17 17 17 17 17
13 13 13 14 14 14 14 14 14 15 15 15 16 16 16 16 17 17 18 18 18 18 18 18 18 18 18 18 18 18 18 18 18 17 17 17 17 17 17 17 17 17 16
13 13 13 13 13 14 14 14 14 14 14 15 15 15 16 16 16 17 17 18 18 18 18 18 18 18 18 18 18 18 18 18 18 18 17 17 17 17 17 17 17 16 16
13 13 13 13 13 13 13 14 14 14 14 14 15 15 15 16 16 16 16 17 17 18 18 18 18 18 18 18 18 18 18 18 18 18 17 17 17 17 17 17 17 16 16
12 12 13 13 13 13 13 13 13 14 14 14 14 14 15 15 15 16 16 17 17 18 18 18 18 18 18 18 18 18 18 18 18 18 17 17 17 17 17 17 16 16 16
12 12 12 12 12 12 13 13 13 13 14 14 14 14 14 15 15 15 16 16 16 17 17 17 18 18 18 18 18 17 18 18 18 18 18 17 17 17 17 16 16 16 16
12 12 12 12 12 12 12 13 13 13 13 13 14 14 14 14 14 15 15 15 16 16 16 17 17 17 17 17 17 17 17 17 18 18 18 17 17 17 16 16 16 16 16
12 12 12 12 12 12 12 12 12 13 13 13 13 13 14 14 14 14 15 15 15 15 16 16 17 17 18 17 17 17 17 17 17 17 17 17 17 17 16 16 16 16 16
12 12 12 12 12 12 12 12 12 12 12 13 13 13 14 14 14 14 14 14 15 15 15 16 16 17 17 17 17 17 17 17 17 17 17 17 17 17 16 16 16 16 16
12 12 12 12 12 12 12 12 12 12 12 12 13 13 13 13 14 14 14 14 14 14 14 15 16 16 16 16 17 17 16 16 16 17 17 17 17 17 16 16 16 16 16
12 12 12 11 11 11 11 11 11 12 12 12 12 13 13 13 13 13 14 14 14 14 14 15 15 15 16 16 16 16 16 16 16 16 16 17 17 16 16 16 16 16 15
11 11 11 11 11 11 11 11 11 11 12 12 12 12 13 13 13 13 13 13 14 14 14 14 14 15 15 15 15 16 16 16 16 16 16 16 16 16 16 16 15 15 15
11 11 11 11 11 11 11 11 11 11 11 12 12 12 12 12 12 13 13 13 13 13 14 14 14 14 15 15 15 15 15 15 15 15 15 16 15 15 15 15 15 15 15
11 11 11 11 11 11 11 11 11 11 11 11 12 12 12 12 12 12 13 13 13 13 13 13 14 14 14 14 15 15 15 15 15 15 15 15 15 15 15 15 15 15 14
11 11 11 11 11 11 11 11 11 11 11 11 11 12 12 12 12 12 12 13 13 13 13 13 13 13 14 14 14 14 14 14 14 14 14 14 15 15 15 14 14 14 14
11 11 11 11 11 11 11 11 11 11 11 11 11 11 12 12 12 12 12 12 13 13 13 13 13 13 14 14 14 14 14 14 14 14 14 14 14 14 14 14 14 14 14
11 11 11 11 11 11 11 11 11 11 11 11 11 11 11 11 12 12 12 12 12 13 13 13 13 13 13 14 14 14 14 14 14 14 14 14 14 14 14 14 13 13 13
12 12 11 11 11 11 11 11 11 11 11 11 11 11 11 11 12 12 12 12 12 12 12 13 13 13 13 13 13 13 13 13 13 13 13 13 13 13 13 13 13 13 13
12 12 12 12 11 11 11 11 11 11 11 11 11 11 11 11 11 12 12 12 12 12 12 12 13 13 13 13 13 13 13 13 13 13 13 13 13 13 12 12 12 12 12
Wind_Speed
4 4 3 4 5 5 3 3 3 4 5 6 6 6 5 6 7 10 12 17 16 14 11 10 9 8 7 6 6 6 7 8 9 10 10 11 11 12 11 11 10 10 10
3 4 4 4 4 5 5 4 4 5 5 5 7 5 4 3 5 9 13 15 17 16 14 12 11 10 9 8 7 7 7 8 9 10 11 11 12 12 12 11 10 10 9
3 2 3 3 4 6 6 5 5 3 5 6 6 6 5 3 3 5 11 13 14 16 17 15 13 12 11 10 9 9 9 9 10 11 11 12 12 12 12 11 10 9 9
6 3 2 2 3 4 4 5 5 5 5 5 5 5 5 3 3 3 5 10 13 14 16 18 16 15 13 12 11 11 10 10 10 11 11 12 12 12 12 11 10 9 9
8 4 3 3 3 2 4 5 4 5 5 6 6 5 5 3 3 4 4 6 10 13 15 18 19 18 16 14 13 13 12 12 12 12 12 13 13 13 12 11 10 10 9
8 6 4 4 3 2 3 3 4 5 5 5 6 5 4 4 3 4 6 5 6 11 15 17 17 17 18 16 15 14 14 14 14 13 13 13 14 13 13 12 11 10 9
7 5 5 5 4 3 3 4 3 4 5 4 3 3 4 5 5 5 5 5 5 5 9 15 15 15 15 18 18 17 16 16 15 15 14 15 14 14 13 12 12 11 10
6 6 5 5 4 3 4 4 3 3 3 4 3 2 3 3 5 7 6 6 6 4 6 12 14 15 16 16 18 20 19 17 17 17 16 16 16 15 14 13 12 12 11
4 4 5 5 5 4 4 4 4 4 4 4 4 3 3 4 3 4 7 7 6 5 5 5 10 13 16 17 18 22 22 20 18 18 18 17 17 16 15 14 13 12 11
4 4 4 5 5 4 4 4 3 3 3 4 4 4 4 2 2 2 3 6 7 7 6 5 6 8 13 14 17 23 25 23 21 19 19 18 18 18 17 16 15 13 12
4 4 4 5 5 4 4 4 4 4 4 4 4 3 3 3 4 3 3 4 4 6 6 5 5 3 8 12 15 21 27 26 23 21 20 19 19 19 18 17 16 15 13
3 5 4 4 5 4 5 5 4 5 4 5 5 4 4 3 4 4 4 4 4 4 5 5 5 4 5 8 13 22 28 27 25 23 21 20 20 19 19 18 17 16 15
4 5 5 5 4 4 5 5 5 5 5 5 5 5 5 6 4 4 4 4 4 3 3 4 5 5 5 6 9 21 26 27 26 25 23 21 20 20 19 19 18 17 16
4 5 5 6 5 5 5 5 4 5 4 5 6 6 5 5 5 5 5 4 4 4 4 5 4 6 5 7 10 20 20 26 26 25 24 22 21 21 20 20 19 18 17
5 6 6 6 6 5 5 4 4 5 5 5 5 6 5 5 5 5 5 5 5 5 6 6 5 6 6 7 11 14 14 22 25 25 24 23 22 22 21 21 20 19 18
6 5 5 6 7 6 6 5 4 5 5 5 5 6 5 5 5 5 6 6 6 6 5 5 5 4 5 5 12 13 12 20 24 25 25 24 24 23 23 22 21 20 19
6 6 5 6 7 6 6 5 6 6 6 6 6 5 5 5 4 5 5 6 6 6 7 5 3 3 5 6 6 9 11 13 17 23 25 25 24 24 24 23 22 21 21
6 6 5 6 6 7 6 6 7 7 7 7 6 6 5 5 5 4 4 5 6 6 7 7 5 4 6 6 7 7 7 10 12 20 24 25 25 25 25 24 23 23 22
6 7 6 6 6 6 6 7 7 8 8 7 7 6 5 5 4 4 4 4 5 6 6 6 5 4 4 4 5 6 6 5 8 14 20 22 24 25 25 25 24 24 23
7 6 6 7 6 6 6 7 8 9 9 8 7 6 6 5 4 3 4 4 4 5 5 5 5 4 4 4 5 6 5 5 6 7 11 15 19 23 24 25 25 25 25
7 6 7 7 7 6 6 7 8 9 9 9 8 6 5 4 3 3 3 3 3 3 4 4 4 4 4 4 6 5 6 5 5 5 6 8 10 11 16 22 24 25 25
6 5 6 6 6 6 7 8 8 8 9 9 8 6 6 4 4 5 5 5 5 5 4 4 4 5 6 6 6 6 6 5 5 6 7 8 8 10 10 15 22 26 26
5 5 5 5 6 5 7 9 11 8 8 8 8 7 6 5 5 4 5 6 7 9 9 7 6 6 6 6 7 8 7 6 5 6 7 7 7 9 8 15 24 26 26
4 5 5 5 6 5 5 7 11 8 7 7 7 6 6 5 5 6 5 5 5 4 5 6 6 6 5 5 6 7 7 5 3 4 5 4 5 5 6 11 23 27 27
4 5 6 6 6 4 2 4 7 7 6 7 6 6 6 5 7 7 5 5 5 4 3 4 5 5 6 6 5 5 6 6 4 3 3 4 4 3 4 6 14 24 25
5 5 6 6 6 5 3 2 5 4 6 6 6 5 5 6 8 8 4 4 5 5 4 4 3 4 4 5 7 7 7 7 4 4 4 5 5 4 3 2 6 13 17
Wind_Direction
225 226 226 212 216 220 217 216 235 255 268 271 257 244 235 214 191 158 162 167 165 170 175 179 179 178 175 171 166 162 159 157 157 156 154 150 145 140 138 135 134 131 127
235 223 229 219 211 214 217 218 228 245 263 279 284 275 268 236 199 157 162 173 175 177 182 186 187 184 183 181 178 172 165 162 163 159 155 153 150 147 145 143 141 140 136
283 258 245 239 222 216 215 217 230 245 255 265 278 279 275 260 237 182 171 175 182 187 188 189 189 188 188 186 185 180 175 171 169 164 160 159 157 157 155 154 152 149 147
335 323 302 282 256 227 209 209 210 217 236 246 260 274 275 265 252 253 195 183 181 187 194 194 189 189 191 191 189 187 183 180 176 172 169 167 167 166 166 164 161 160 157
336 326 314 293 284 249 224 224 209 204 223 233 243 256 274 267 255 253 244 215 192 182 184 194 192 189 191 193 193 191 189 186 183 181 178 175 175 174 173 171 171 169 167
340 334 317 306 299 284 257 239 224 210 214 220 241 247 258 268 262 255 253 247 214 189 183 183 188 193 194 194 195 195 194 191 190 189 186 184 181 181 180 179 179 178 176
349 338 333 324 319 296 279 263 241 228 224 209 215 250 258 255 256 252 258 259 241 208 183 175 182 187 194 197 196 196 197 196 194 194 193 190 187 187 187 187 187 186 185
355 346 345 332 319 303 287 277 259 238 239 211 192 194 232 248 250 241 243 248 247 225 192 181 188 189 185 188 198 196 196 196 197 196 196 195 192 192 192 193 193 192 191
357 357 343 337 328 323 302 293 263 248 247 239 218 200 198 217 224 232 234 234 239 239 221 192 192 193 186 184 189 196 195 194 197 199 199 198 196 195 195 196 196 196 193
2 6 350 340 336 328 318 305 297 265 247 250 253 240 239 234 195 227 247 235 234 236 233 226 211 199 189 182 185 190 193 194 196 200 201 200 199 198 198 198 199 198 195
348 9 357 341 332 325 321 314 312 284 253 243 242 247 253 255 239 219 235 233 233 236 230 226 224 215 197 187 182 187 190 192 194 198 201 201 201 201 201 201 200 199 196
344 7 356 342 333 335 324 313 303 290 271 256 249 239 231 230 226 221 228 228 228 234 229 225 223 222 208 189 190 185 188 190 193 195 198 200 201 202 203 202 201 199 196
343 355 355 332 327 322 312 310 305 292 276 266 254 246 239 237 239 239 238 239 236 238 227 228 220 215 216 197 196 184 187 189 192 194 196 198 200 201 203 203 201 198 196
331 343 339 322 316 316 314 310 305 296 288 275 267 258 249 245 239 231 227 226 238 236 229 233 223 212 210 200 192 180 187 189 192 193 195 196 198 199 200 201 200 198 196
332 339 325 323 324 318 312 311 301 303 304 291 280 272 257 247 246 240 232 222 215 223 230 224 217 216 205 199 180 186 186 192 193 193 194 196 196 196 196 196 196 196 192
315 317 337 339 331 330 335 339 322 309 300 290 277 269 264 250 244 242 240 235 225 220 233 225 214 210 202 201 188 190 196 194 197 196 195 195 195 195 194 192 192 190 187
325 337 341 338 331 336 339 342 329 319 312 301 295 287 280 269 252 244 239 234 231 223 235 244 225 212 199 207 193 198 196 189 199 200 197 196 195 193 190 189 189 187 184
330 330 335 335 335 338 341 336 328 330 323 314 303 296 290 289 276 258 247 242 236 226 224 237 232 213 211 205 195 198 196 196 195 200 199 197 194 191 189 187 185 183 182
338 332 336 336 335 339 346 344 344 336 324 318 313 310 300 291 279 274 264 252 246 241 228 227 232 217 212 201 194 199 196 193 197 197 198 197 193 189 187 184 182 181 179
327 328 340 337 340 346 352 356 347 332 324 320 313 309 304 291 277 280 275 265 255 248 240 230 226 218 211 201 190 196 198 195 195 189 192 194 193 188 184 182 181 179 178
333 339 343 339 345 341 356 359 340 329 322 317 313 311 308 297 289 281 278 275 270 254 251 238 230 221 211 193 199 192 197 189 194 183 178 184 185 187 187 184 182 179 178
312 324 329 332 332 336 343 343 338 323 316 314 315 315 310 301 293 279 272 268 257 251 247 240 233 226 220 207 200 196 190 184 199 184 183 191 182 186 186 185 184 179 178
300 311 313 316 314 317 323 333 337 323 307 310 316 320 323 332 341 323 291 276 265 254 240 236 240 235 226 213 199 200 198 192 192 174 173 190 184 190 183 183 180 178 177
304 302 298 298 298 307 323 336 338 320 308 313 322 331 335 349 5 356 333 314 296 275 251 237 236 242 239 223 204 203 199 184 162 166 161 177 173 176 168 172 177 176 175
282 288 290 283 285 287 292 329 340 313 312 320 331 343 344 350 353 349 333 319 315 306 289 251 244 248 247 235 207 186 181 180 189 181 162 156 151 140 149 168 173 173 173
272 279 282 275 272 274 231 280 337 314 321 328 327 334 356 355 345 344 328 316 316 319 326 306 271 262 248 230 212 203 195 190 178 177 172 156 152 139 133 135 161 168 168
Height
1512 1513 1514 1514 1515 1517 1518 1520 1522 1523 1525 1526 1528 1529 1531 1532 1534 1534 1536 1538 1539 1540 1541 1542 1543 1544 1545 1547 1548 1550 1552 1554 1555 1557 1559 1561 1563 1564 1566 1567 1569 1570 1571
1511 1511 1511 1512 1513 1514 1515 1517 1518 1520 1522 1523 1525 1527 1528 1530 1532 1532 1534 1536 1537 1539 1540 1541 1542 1543 1544 1546 1547 1549 1551 1553 1555 1557 1559 1561 1563 1564 1566 1567 1569 1570 1571
1510 1509 1509 1510 1511 1511 1512 1514 1515 1517 1518 1519 1521 1523 1526 1528 1529 1530 1531 1533 1535 1536 1538 1539 1540 1541 1543 1545 1546 1548 1550 1552 1554 1556 1558 1560 1562 1564 1566 1567 1569 1570 1571
1507 1507 1507 1508 1508 1509 1510 1511 1512 1513 1515 1516 1518 1520 1522 1524 1526 1528 1529 1530 1532 1534 1536 1537 1539 1540 1541 1543 1545 1547 1549 1551 1553 1555 1557 1559 1561 1563 1565 1567 1568 1570 1571
1505 1505 1505 1505 1506 1507 1507 1508 1509 1510 1511 1513 1515 1516 1518 1520 1522 1524 1526 1528 1529 1530 1533 1535 1536 1538 1539 1541 1543 1545 1547 1549 1551 1554 1556 1558 1560 1562 1564 1566 1568 1569 1570
1503 1503 1503 1503 1504 1504 1504 1505 1506 1507 1508 1509 1511 1513 1514 1516 1518 1520 1522 1524 1526 1527 1529 1531 1533 1535 1537 1539 1540 1543 1545 1547 1549 1552 1554 1556 1559 1561 1563 1565 1566 1568 1569
1502 1501 1501 1501 1501 1501 1502 1502 1503 1504 1505 1507 1509 1510 1511 1512 1514 1515 1518 1520 1523 1524 1526 1527 1530 1532 1534 1536 1538 1540 1542 1544 1547 1549 1552 1554 1557 1559 1561 1563 1565 1566 1568
1501 1500 1499 1499 1499 1499 1499 1499 1500 1501 1502 1504 1505 1507 1508 1509 1508 1511 1513 1516 1518 1521 1522 1524 1526 1528 1530 1533 1535 1537 1539 1541 1544 1547 1549 1552 1554 1557 1559 1561 1563 1565 1566
1500 1499 1498 1497 1497 1497 1497 1497 1498 1498 1499 1501 1502 1504 1505 1505 1505 1507 1509 1511 1513 1516 1518 1520 1522 1524 1527 1529 1531 1534 1536 1538 1541 1543 1546 1549 1551 1554 1556 1559 1561 1562 1564
1499 1498 1497 1496 1495 1495 1495 1495 1495 1496 1496 1497 1499 1500 1502 1502 1504 1504 1505 1507 1508 1511 1513 1516 1518 1520 1523 1525 1527 1530 1532 1535 1537 1540 1543 1546 1548 1551 1553 1556 1558 1560 1562
1499 1498 1496 1495 1494 1493 1493 1492 1493 1493 1493 1494 1495 1496 1497 1499 1500 1502 1502 1503 1504 1506 1508 1511 1513 1516 1518 1520 1523 1526 1529 1531 1534 1536 1539 1542 1545 1548 1550 1553 1555 1557 1559
1499 1497 1495 1494 1492 1491 1491 1490 1490 1490 1490 1491 1491 1492 1493 1495 1495 1497 1498 1499 1500 1501 1503 1506 1508 1511 1514 1516 1519 1521 1525 1527 1530 1532 1535 1538 1541 1544 1547 1549 1552 1554 1556
1498 1496 1494 1492 1491 1490 1489 1488 1488 1487 1487 1488 1488 1488 1489 1490 1492 1493 1495 1495 1496 1497 1499 1500 1503 1506 1509 1511 1514 1517 1520 1523 1526 1528 1531 1534 1537 1540 1543 1546 1548 1551 1553
1498 1496 1493 1491 1490 1489 1487 1486 1485 1485 1485 1485 1485 1485 1485 1486 1487 1488 1490 1492 1492 1493 1494 1495 1497 1500 1503 1506 1509 1512 1515 1519 1522 1524 1527 1529 1533 1536 1539 1542 1545 1548 1550
1497 1495 1492 1491 1489 1487 1486 1485 1483 1482 1482 1482 1481 1481 1481 1481 1482 1483 1485 1487 1489 1488 1489 1490 1492 1495 1498 1501 1503 1506 1509 1513 1517 1520 1522 1525 1528 1531 1535 1538 1541 1544 1547
1495 1494 1492 1489 1488 1486 1485 1483 1481 1480 1479 1479 1478 1478 1477 1477 1477 1478 1479 1481 1483 1484 1484 1485 1487 1489 1492 1495 1498 1501 1504 1507 1511 1514 1518 1521 1524 1527 1530 1534 1537 1540 1543
1495 1493 1491 1488 1486 1485 1483 1481 1479 1478 1477 1476 1475 1474 1474 1473 1473 1473 1474 1475 1477 1478 1479 1480 1482 1485 1486 1489 1491 1495 1498 1501 1504 1508 1512 1516 1519 1522 1525 1529 1532 1536 1539
1493 1491 1489 1487 1485 1483 1482 1479 1478 1476 1474 1473 1472 1471 1470 1470 1469 1469 1469 1470 1471 1473 1474 1475 1477 1479 1481 1483 1486 1489 1491 1495 1498 1502 1506 1510 1513 1517 1520 1524 1528 1531 1534
1492 1490 1488 1486 1484 1482 1480 1478 1476 1474 1472 1470 1469 1468 1467 1466 1465 1465 1465 1465 1466 1467 1469 1470 1471 1473 1475 1478 1481 1483 1486 1488 1492 1495 1499 1503 1507 1511 1515 1519 1523 1526 1530
1490 1489 1487 1484 1482 1480 1478 1475 1473 1471 1469 1468 1466 1465 1463 1462 1461 1462 1461 1462 1462 1463 1464 1465 1466 1468 1470 1472 1475 1477 1480 1482 1485 1489 1492 1496 1501 1505 1509 1513 1517 1521 1525
1489 1487 1485 1483 1480 1478 1476 1474 1471 1469 1467 1465 1463 1462 1460 1459 1458 1458 1458 1458 1458 1458 1459 1460 1461 1463 1465 1467 1469 1471 1474 1476 1479 1482 1486 1489 1494 1498 1502 1506 1511 1515 1519
1488 1486 1484 1481 1479 1476 1474 1472 1469 1466 1464 1463 1461 1459 1458 1457 1456 1455 1455 1455 1455 1455 1455 1456 1457 1458 1459 1461 1464 1466 1469 1471 1474 1477 1480 1483 1487 1490 1494 1498 1503 1508 1513
1487 1485 1482 1480 1477 1475 1473 1470 1468 1465 1463 1461 1459 1458 1456 1455 1454 1453 1452 1452 1452 1452 1452 1452 1452 1453 1455 1457 1459 1461 1463 1465 1467 1470 1475 1477 1480 1483 1488 1492 1497 1502 1507
1486 1483 1481 1479 1476 1474 1471 1469 1467 1464 1462 1460 1458 1456 1455 1453 1452 1451 1450 1449 1449 1448 1448 1448 1449 1449 1451 1452 1454 1456 1458 1461 1464 1466 1469 1472 1474 1478 1482 1486 1491 1496 1501
1484 1482 1480 1477 1475 1473 1470 1468 1465 1463 1460 1459 1457 1455 1453 1452 1451 1449 1448 1447 1446 1446 1446 1445 1445 1446 1446 1448 1449 1452 1454 1456 1458 1460 1463 1466 1469 1473 1477 1481 1485 1490 1495
1482 1480 1478 1476 1474 1471 1469 1467 1464 1461 1459 1457 1455 1454 1452 1450 1449 1448 1446 1445 1444 1444 1443 1443 1442 1442 1443 1443 1445 1446 1448 1450 1452 1455 1457 1461 1464 1468 1472 1476 1480 1485 1490